owner,sensor,date,latitude,longitude,vertical_datum,sea_water_temperature,qcFlag 
TABS,ioos:station:wmo:42047:1,2015-03-15T00:00:00Z,27.8966,-93.5973,-2.0,23.87,11111222 
TABS,ioos:station:wmo:42047:1,2015-03-15T00:30:00Z,27.8966,-93.5973,-2.0,22.05,11111222 
TABS,ioos:station:wmo:42047:1,2015-03-15T01:00:00Z,27.8966,-93.5973,-2.0,21.7,11111222 
TABS,ioos:station:wmo:42047:1,2015-03-15T01:30:00Z,27.8966,-93.5973,-2.0,21.45,11111222 
TABS,ioos:station:wmo:42047:1,2015-03-15T02:00:00Z,27.8966,-93.5973,-2.0,21.32,11111222 
TABS,ioos:station:wmo:42047:1,2015-03-15T02:30:00Z,27.8966,-93.5973,-2.0,21.26,11111222 
TABS,ioos:station:wmo:42047:1,2015-03-15T03:00:00Z,27.8966,-93.5973,-2.0,21.22,11111222 
TABS,ioos:station:wmo:42047:1,2015-03-15T03:30:00Z,27.8966,-93.5973,-2.0,21.18,11111222 
TABS,ioos:station:wmo:42047:1,2015-03-15T04:00:00Z,27.8966,-93.5973,-2.0,21.15,11111222 
TABS,ioos:station:wmo:42047:1,2015-03-15T04:30:00Z,27.8966,-93.5973,-2.0,21.12,11111222 
TABS,ioos:station:wmo:42047:1,2015-03-15T05:00:00Z,27.8966,-93.5973,-2.0,21.11,11111222 
TABS,ioos:station:wmo:42047:1,2015-03-15T05:30:00Z,27.8966,-93.5973,-2.0,21.07,11111222 
TABS,ioos:station:wmo:42047:1,2015-03-15T06:00:00Z,27.8966,-93.5973,-2.0,21.05,11111222 
TABS,ioos:station:wmo:42047:1,2015-03-15T06:30:00Z,27.8966,-93.5973,-2.0,21.01,11111222 
TABS,ioos:station:wmo:42047:1,2015-03-15T07:00:00Z,27.8966,-93.5973,-2.0,21.02,11111222 
TABS,ioos:station:wmo:42047:1,2015-03-15T07:30:00Z,27.8966,-93.5973,-2.0,21.04,11111222 
TABS,ioos:station:wmo:42047:1,2015-03-15T08:00:00Z,27.8966,-93.5973,-2.0,21.04,11111222 
TABS,ioos:station:wmo:42047:1,2015-03-15T08:30:00Z,27.8966,-93.5973,-2.0,21.03,11111222 
TABS,ioos:station:wmo:42047:1,2015-03-15T09:00:00Z,27.8966,-93.5973,-2.0,21.0,11111222 
TABS,ioos:station:wmo:42047:1,2015-03-15T09:30:00Z,27.8966,-93.5973,-2.0,21.01,11111222 
TABS,ioos:station:wmo:42047:1,2015-03-15T10:00:00Z,27.8966,-93.5973,-2.0,21.0,11111222 
TABS,ioos:station:wmo:42047:1,2015-03-15T10:30:00Z,27.8966,-93.5973,-2.0,21.0,11111222 
TABS,ioos:station:wmo:42047:1,2015-03-15T11:00:00Z,27.8966,-93.5973,-2.0,20.98,11111222 
TABS,ioos:station:wmo:42047:1,2015-03-15T11:30:00Z,27.8966,-93.5973,-2.0,20.96,11111222 
TABS,ioos:station:wmo:42047:1,2015-03-15T12:00:00Z,27.8966,-93.5973,-2.0,20.94,11111222 
TABS,ioos:station:wmo:42047:1,2015-03-15T12:30:00Z,27.8966,-93.5973,-2.0,20.94,11111222 
TABS,ioos:station:wmo:42047:1,2015-03-15T13:00:00Z,27.8966,-93.5973,-2.0,20.94,11111222 
TABS,ioos:station:wmo:42047:1,2015-03-15T13:30:00Z,27.8966,-93.5973,-2.0,20.95,11111222 
TABS,ioos:station:wmo:42047:1,2015-03-15T14:00:00Z,27.8966,-93.5973,-2.0,20.94,11111222 
TABS,ioos:station:wmo:42047:1,2015-03-15T14:30:00Z,27.8966,-93.5973,-2.0,20.96,11111222 
TABS,ioos:station:wmo:42047:1,2015-03-15T15:00:00Z,27.8966,-93.5973,-2.0,20.98,11111222 
TABS,ioos:station:wmo:42047:1,2015-03-15T15:30:00Z,27.8966,-93.5973,-2.0,20.98,11111222 
TABS,ioos:station:wmo:42047:1,2015-03-15T16:00:00Z,27.8966,-93.5973,-2.0,20.99,11111222 
TABS,ioos:station:wmo:42047:1,2015-03-15T16:30:00Z,27.8966,-93.5973,-2.0,21.01,11111222 
TABS,ioos:station:wmo:42047:1,2015-03-15T17:00:00Z,27.8966,-93.5973,-2.0,21.02,11111222 
TABS,ioos:station:wmo:42047:1,2015-03-15T17:30:00Z,27.8966,-93.5973,-2.0,21.02,11111222 
TABS,ioos:station:wmo:42047:1,2015-03-15T18:00:00Z,27.8966,-93.5973,-2.0,21.06,11111222 
TABS,ioos:station:wmo:42047:1,2015-03-15T18:30:00Z,27.8966,-93.5973,-2.0,21.11,11111222 
TABS,ioos:station:wmo:42047:1,2015-03-15T19:00:00Z,27.8966,-93.5973,-2.0,21.12,11111222 
TABS,ioos:station:wmo:42047:1,2015-03-15T19:30:00Z,27.8966,-93.5973,-2.0,21.13,11111222 
TABS,ioos:station:wmo:42047:1,2015-03-15T20:00:00Z,27.8966,-93.5973,-2.0,21.14,11111222 
TABS,ioos:station:wmo:42047:1,2015-03-15T20:30:00Z,27.8966,-93.5973,-2.0,21.15,11111222 
TABS,ioos:station:wmo:42047:1,2015-03-15T21:00:00Z,27.8966,-93.5973,-2.0,21.17,11111222 
TABS,ioos:station:wmo:42047:1,2015-03-15T21:30:00Z,27.8966,-93.5973,-2.0,21.19,11111222 
TABS,ioos:station:wmo:42047:1,2015-03-15T22:00:00Z,27.8966,-93.5973,-2.0,21.2,11111222 
TABS,ioos:station:wmo:42047:1,2015-03-15T22:30:00Z,27.8966,-93.5973,-2.0,21.19,11111222 
TABS,ioos:station:wmo:42047:1,2015-03-15T23:00:00Z,27.8966,-93.5973,-2.0,21.17,11111222 
TABS,ioos:station:wmo:42047:1,2015-03-15T23:30:00Z,27.8966,-93.5973,-2.0,21.15,11111222 
TABS,ioos:station:wmo:42047:1,2015-03-16T00:00:00Z,27.8966,-93.5973,-2.0,21.13,11111222 
TABS,ioos:station:wmo:42047:1,2015-03-16T00:30:00Z,27.8966,-93.5973,-2.0,21.25,11111222 
TABS,ioos:station:wmo:42047:1,2015-03-16T01:00:00Z,27.8966,-93.5973,-2.0,21.38,11111222 
TABS,ioos:station:wmo:42047:1,2015-03-16T01:30:00Z,27.8966,-93.5973,-2.0,21.46,11111222 
TABS,ioos:station:wmo:42047:1,2015-03-16T02:00:00Z,27.8966,-93.5973,-2.0,21.52,11111222 
TABS,ioos:station:wmo:42047:1,2015-03-16T02:30:00Z,27.8966,-93.5973,-2.0,21.52,11111222 
TABS,ioos:station:wmo:42047:1,2015-03-16T03:00:00Z,27.8966,-93.5973,-2.0,21.52,11111222 
TABS,ioos:station:wmo:42047:1,2015-03-16T03:30:00Z,27.8966,-93.5973,-2.0,21.53,11111222 
TABS,ioos:station:wmo:42047:1,2015-03-16T04:00:00Z,27.8966,-93.5973,-2.0,21.54,11111222 
TABS,ioos:station:wmo:42047:1,2015-03-16T04:30:00Z,27.8966,-93.5973,-2.0,21.53,11111222 
TABS,ioos:station:wmo:42047:1,2015-03-16T05:00:00Z,27.8966,-93.5973,-2.0,21.52,11111222 
TABS,ioos:station:wmo:42047:1,2015-03-16T05:30:00Z,27.8966,-93.5973,-2.0,21.49,11111222 
TABS,ioos:station:wmo:42047:1,2015-03-16T06:00:00Z,27.8966,-93.5973,-2.0,21.47,11111222 
TABS,ioos:station:wmo:42047:1,2015-03-16T06:30:00Z,27.8966,-93.5973,-2.0,21.45,11111222 
TABS,ioos:station:wmo:42047:1,2015-03-16T07:00:00Z,27.8966,-93.5973,-2.0,21.42,11111222 
TABS,ioos:station:wmo:42047:1,2015-03-16T07:30:00Z,27.8966,-93.5973,-2.0,21.36,11111222 
TABS,ioos:station:wmo:42047:1,2015-03-16T08:00:00Z,27.8966,-93.5973,-2.0,21.31,11111222 
TABS,ioos:station:wmo:42047:1,2015-03-16T08:30:00Z,27.8966,-93.5973,-2.0,21.32,11111222 
TABS,ioos:station:wmo:42047:1,2015-03-16T09:00:00Z,27.8966,-93.5973,-2.0,21.32,11111222 
TABS,ioos:station:wmo:42047:1,2015-03-16T09:30:00Z,27.8966,-93.5973,-2.0,21.3,11111222 
TABS,ioos:station:wmo:42047:1,2015-03-16T10:00:00Z,27.8966,-93.5973,-2.0,21.33,11111222 
TABS,ioos:station:wmo:42047:1,2015-03-16T10:30:00Z,27.8966,-93.5973,-2.0,21.35,11111222 
TABS,ioos:station:wmo:42047:1,2015-03-16T11:00:00Z,27.8966,-93.5973,-2.0,21.35,11111222 
TABS,ioos:station:wmo:42047:1,2015-03-16T11:30:00Z,27.8966,-93.5973,-2.0,21.32,11111222 
TABS,ioos:station:wmo:42047:1,2015-03-16T12:00:00Z,27.8966,-93.5973,-2.0,21.29,11111222 
TABS,ioos:station:wmo:42047:1,2015-03-16T12:30:00Z,27.8966,-93.5973,-2.0,21.29,11111222 
TABS,ioos:station:wmo:42047:1,2015-03-16T13:00:00Z,27.8966,-93.5973,-2.0,21.3,11111222 
TABS,ioos:station:wmo:42047:1,2015-03-16T13:30:00Z,27.8966,-93.5973,-2.0,21.28,11111222 
TABS,ioos:station:wmo:42047:1,2015-03-16T14:00:00Z,27.8966,-93.5973,-2.0,21.28,11111222 
TABS,ioos:station:wmo:42047:1,2015-03-16T14:30:00Z,27.8966,-93.5973,-2.0,21.25,11111222 
TABS,ioos:station:wmo:42047:1,2015-03-16T15:00:00Z,27.8966,-93.5973,-2.0,21.25,11111222 
TABS,ioos:station:wmo:42047:1,2015-03-16T15:30:00Z,27.8966,-93.5973,-2.0,21.25,11111222 
TABS,ioos:station:wmo:42047:1,2015-03-16T16:00:00Z,27.8966,-93.5973,-2.0,21.27,11111222 
TABS,ioos:station:wmo:42047:1,2015-03-16T16:30:00Z,27.8966,-93.5973,-2.0,21.29,11111222 
TABS,ioos:station:wmo:42047:1,2015-03-16T17:00:00Z,27.8966,-93.5973,-2.0,21.29,11111222 
TABS,ioos:station:wmo:42047:1,2015-03-16T17:30:00Z,27.8966,-93.5973,-2.0,21.29,11111222 
TABS,ioos:station:wmo:42047:1,2015-03-16T18:00:00Z,27.8966,-93.5973,-2.0,21.28,11111222 
TABS,ioos:station:wmo:42047:1,2015-03-16T18:30:00Z,27.8966,-93.5973,-2.0,21.3,11111222 
TABS,ioos:station:wmo:42047:1,2015-03-16T19:00:00Z,27.8966,-93.5973,-2.0,21.28,11111222 
TABS,ioos:station:wmo:42047:1,2015-03-16T19:30:00Z,27.8966,-93.5973,-2.0,21.33,11111222 
TABS,ioos:station:wmo:42047:1,2015-03-16T20:00:00Z,27.8966,-93.5973,-2.0,21.37,11111222 
TABS,ioos:station:wmo:42047:1,2015-03-16T20:30:00Z,27.8966,-93.5973,-2.0,21.37,11111222 
TABS,ioos:station:wmo:42047:1,2015-03-16T21:00:00Z,27.8966,-93.5973,-2.0,21.49,11111222 
TABS,ioos:station:wmo:42047:1,2015-03-16T21:30:00Z,27.8966,-93.5973,-2.0,21.64,11111222 
TABS,ioos:station:wmo:42047:1,2015-03-16T22:00:00Z,27.8966,-93.5973,-2.0,21.67,11111222 
TABS,ioos:station:wmo:42047:1,2015-03-16T22:30:00Z,27.8966,-93.5973,-2.0,21.71,11111222 
TABS,ioos:station:wmo:42047:1,2015-03-16T23:00:00Z,27.8966,-93.5973,-2.0,21.72,11111222 
TABS,ioos:station:wmo:42047:1,2015-03-16T23:30:00Z,27.8966,-93.5973,-2.0,21.72,11111222 
TABS,ioos:station:wmo:42047:1,2015-03-17T00:00:00Z,27.8966,-93.5973,-2.0,21.72,11111222 
TABS,ioos:station:wmo:42047:1,2015-03-17T00:30:00Z,27.8966,-93.5973,-2.0,21.71,11111222 
TABS,ioos:station:wmo:42047:1,2015-03-17T01:00:00Z,27.8966,-93.5973,-2.0,21.71,11111222 
TABS,ioos:station:wmo:42047:1,2015-03-17T01:30:00Z,27.8966,-93.5973,-2.0,21.71,11111222 
TABS,ioos:station:wmo:42047:1,2015-03-17T02:00:00Z,27.8966,-93.5973,-2.0,21.72,11111222 
TABS,ioos:station:wmo:42047:1,2015-03-17T02:30:00Z,27.8966,-93.5973,-2.0,21.75,11111222 
TABS,ioos:station:wmo:42047:1,2015-03-17T03:00:00Z,27.8966,-93.5973,-2.0,21.74,11111222 
TABS,ioos:station:wmo:42047:1,2015-03-17T03:30:00Z,27.8966,-93.5973,-2.0,21.77,11111222 
TABS,ioos:station:wmo:42047:1,2015-03-17T04:00:00Z,27.8966,-93.5973,-2.0,21.8,11111222 
TABS,ioos:station:wmo:42047:1,2015-03-17T04:30:00Z,27.8966,-93.5973,-2.0,21.82,11111222 
TABS,ioos:station:wmo:42047:1,2015-03-17T05:00:00Z,27.8966,-93.5973,-2.0,21.83,11111222 
TABS,ioos:station:wmo:42047:1,2015-03-17T05:30:00Z,27.8966,-93.5973,-2.0,21.82,11111222 
TABS,ioos:station:wmo:42047:1,2015-03-17T06:00:00Z,27.8966,-93.5973,-2.0,21.81,11111222 
TABS,ioos:station:wmo:42047:1,2015-03-17T06:30:00Z,27.8966,-93.5973,-2.0,21.79,11111222 
TABS,ioos:station:wmo:42047:1,2015-03-17T07:00:00Z,27.8966,-93.5973,-2.0,21.78,11111222 
TABS,ioos:station:wmo:42047:1,2015-03-17T07:30:00Z,27.8966,-93.5973,-2.0,21.77,11111222 
TABS,ioos:station:wmo:42047:1,2015-03-17T08:00:00Z,27.8966,-93.5973,-2.0,21.78,11111222 
TABS,ioos:station:wmo:42047:1,2015-03-17T08:30:00Z,27.8966,-93.5973,-2.0,21.79,11111222 
TABS,ioos:station:wmo:42047:1,2015-03-17T09:00:00Z,27.8966,-93.5973,-2.0,21.78,11111222 
TABS,ioos:station:wmo:42047:1,2015-03-17T09:30:00Z,27.8966,-93.5973,-2.0,21.77,11111222 
TABS,ioos:station:wmo:42047:1,2015-03-17T10:00:00Z,27.8966,-93.5973,-2.0,21.75,11111222 
TABS,ioos:station:wmo:42047:1,2015-03-17T10:30:00Z,27.8966,-93.5973,-2.0,21.74,11111222 
TABS,ioos:station:wmo:42047:1,2015-03-17T11:00:00Z,27.8966,-93.5973,-2.0,21.74,11111222 
TABS,ioos:station:wmo:42047:1,2015-03-17T11:30:00Z,27.8966,-93.5973,-2.0,21.74,11111222 
TABS,ioos:station:wmo:42047:1,2015-03-17T12:00:00Z,27.8966,-93.5973,-2.0,21.74,11111222 
TABS,ioos:station:wmo:42047:1,2015-03-17T12:30:00Z,27.8966,-93.5973,-2.0,21.74,11111222 
TABS,ioos:station:wmo:42047:1,2015-03-17T13:00:00Z,27.8966,-93.5973,-2.0,21.73,11111222 
TABS,ioos:station:wmo:42047:1,2015-03-17T13:30:00Z,27.8966,-93.5973,-2.0,21.73,11111222 
TABS,ioos:station:wmo:42047:1,2015-03-17T14:00:00Z,27.8966,-93.5973,-2.0,21.73,11111222 
TABS,ioos:station:wmo:42047:1,2015-03-17T14:30:00Z,27.8966,-93.5973,-2.0,21.74,11111222 
TABS,ioos:station:wmo:42047:1,2015-03-17T15:00:00Z,27.8966,-93.5973,-2.0,21.76,11111222 
TABS,ioos:station:wmo:42047:1,2015-03-17T15:30:00Z,27.8966,-93.5973,-2.0,21.8,11111222 
TABS,ioos:station:wmo:42047:1,2015-03-17T16:00:00Z,27.8966,-93.5973,-2.0,21.82,11111222 
TABS,ioos:station:wmo:42047:1,2015-03-17T16:30:00Z,27.8966,-93.5973,-2.0,21.89,11111222 
TABS,ioos:station:wmo:42047:1,2015-03-17T17:00:00Z,27.8966,-93.5973,-2.0,21.92,11111222 
TABS,ioos:station:wmo:42047:1,2015-03-17T17:30:00Z,27.8966,-93.5973,-2.0,21.94,11111222 
TABS,ioos:station:wmo:42047:1,2015-03-17T18:00:00Z,27.8966,-93.5973,-2.0,21.95,11111222 
TABS,ioos:station:wmo:42047:1,2015-03-17T18:30:00Z,27.8966,-93.5973,-2.0,22.03,11111222 
TABS,ioos:station:wmo:42047:1,2015-03-17T19:00:00Z,27.8966,-93.5973,-2.0,22.08,11111222 
TABS,ioos:station:wmo:42047:1,2015-03-17T19:30:00Z,27.8966,-93.5973,-2.0,22.44,11111222 
TABS,ioos:station:wmo:42047:1,2015-03-17T20:00:00Z,27.8966,-93.5973,-2.0,22.35,11111222 
TABS,ioos:station:wmo:42047:1,2015-03-17T20:30:00Z,27.8966,-93.5973,-2.0,22.25,11111222 
TABS,ioos:station:wmo:42047:1,2015-03-17T21:00:00Z,27.8966,-93.5973,-2.0,22.25,11111222 
TABS,ioos:station:wmo:42047:1,2015-03-17T21:30:00Z,27.8966,-93.5973,-2.0,22.22,11111222 
TABS,ioos:station:wmo:42047:1,2015-03-17T22:00:00Z,27.8966,-93.5973,-2.0,22.63,11111222 
TABS,ioos:station:wmo:42047:1,2015-03-17T22:30:00Z,27.8966,-93.5973,-2.0,22.44,11111222 
TABS,ioos:station:wmo:42047:1,2015-03-17T23:00:00Z,27.8966,-93.5973,-2.0,22.22,11111222 
TABS,ioos:station:wmo:42047:1,2015-03-17T23:30:00Z,27.8966,-93.5973,-2.0,22.24,11111222 
TABS,ioos:station:wmo:42047:1,2015-03-18T00:00:00Z,27.8966,-93.5973,-2.0,22.14,11111222 
TABS,ioos:station:wmo:42047:1,2015-03-18T00:30:00Z,27.8966,-93.5973,-2.0,22.15,11111222 
TABS,ioos:station:wmo:42047:1,2015-03-18T01:00:00Z,27.8966,-93.5973,-2.0,22.39,11111222 
TABS,ioos:station:wmo:42047:1,2015-03-18T01:30:00Z,27.8966,-93.5973,-2.0,22.54,11111222 
TABS,ioos:station:wmo:42047:1,2015-03-18T02:00:00Z,27.8966,-93.5973,-2.0,22.5,11111222 
TABS,ioos:station:wmo:42047:1,2015-03-18T02:30:00Z,27.8966,-93.5973,-2.0,22.4,11111222 
TABS,ioos:station:wmo:42047:1,2015-03-18T03:00:00Z,27.8966,-93.5973,-2.0,22.36,11111222 
TABS,ioos:station:wmo:42047:1,2015-03-18T03:30:00Z,27.8966,-93.5973,-2.0,22.34,11111222 
TABS,ioos:station:wmo:42047:1,2015-03-18T04:00:00Z,27.8966,-93.5973,-2.0,22.27,11111222 
TABS,ioos:station:wmo:42047:1,2015-03-18T04:30:00Z,27.8966,-93.5973,-2.0,22.25,11111222 
TABS,ioos:station:wmo:42047:1,2015-03-18T05:00:00Z,27.8966,-93.5973,-2.0,22.22,11111222 
TABS,ioos:station:wmo:42047:1,2015-03-18T05:30:00Z,27.8966,-93.5973,-2.0,22.18,11111222 
TABS,ioos:station:wmo:42047:1,2015-03-18T06:00:00Z,27.8966,-93.5973,-2.0,22.16,11111222 
TABS,ioos:station:wmo:42047:1,2015-03-18T06:30:00Z,27.8966,-93.5973,-2.0,22.12,11111222 
TABS,ioos:station:wmo:42047:1,2015-03-18T07:00:00Z,27.8966,-93.5973,-2.0,22.13,11111222 
TABS,ioos:station:wmo:42047:1,2015-03-18T07:30:00Z,27.8966,-93.5973,-2.0,22.15,11111222 
TABS,ioos:station:wmo:42047:1,2015-03-18T08:00:00Z,27.8966,-93.5973,-2.0,22.14,11111222 
TABS,ioos:station:wmo:42047:1,2015-03-18T08:30:00Z,27.8966,-93.5973,-2.0,22.14,11111222 
TABS,ioos:station:wmo:42047:1,2015-03-18T09:00:00Z,27.8966,-93.5973,-2.0,22.13,11111222 
TABS,ioos:station:wmo:42047:1,2015-03-18T09:30:00Z,27.8966,-93.5973,-2.0,22.11,11111222 
TABS,ioos:station:wmo:42047:1,2015-03-18T10:00:00Z,27.8966,-93.5973,-2.0,22.07,11111222 
TABS,ioos:station:wmo:42047:1,2015-03-18T10:30:00Z,27.8966,-93.5973,-2.0,22.06,11111222 
TABS,ioos:station:wmo:42047:1,2015-03-18T11:00:00Z,27.8966,-93.5973,-2.0,22.08,11111222 
TABS,ioos:station:wmo:42047:1,2015-03-18T11:30:00Z,27.8966,-93.5973,-2.0,22.06,11111222 
TABS,ioos:station:wmo:42047:1,2015-03-18T12:00:00Z,27.8966,-93.5973,-2.0,22.04,11111222 
TABS,ioos:station:wmo:42047:1,2015-03-18T12:30:00Z,27.8966,-93.5973,-2.0,22.01,11111222 
TABS,ioos:station:wmo:42047:1,2015-03-18T13:00:00Z,27.8966,-93.5973,-2.0,21.99,11111222 
TABS,ioos:station:wmo:42047:1,2015-03-18T13:30:00Z,27.8966,-93.5973,-2.0,21.98,11111222 
TABS,ioos:station:wmo:42047:1,2015-03-18T14:00:00Z,27.8966,-93.5973,-2.0,21.99,11111222 
TABS,ioos:station:wmo:42047:1,2015-03-18T14:30:00Z,27.8966,-93.5973,-2.0,22.01,11111222 
TABS,ioos:station:wmo:42047:1,2015-03-18T15:00:00Z,27.8966,-93.5973,-2.0,22.02,11111222 
TABS,ioos:station:wmo:42047:1,2015-03-18T15:30:00Z,27.8966,-93.5973,-2.0,22.01,11111222 
TABS,ioos:station:wmo:42047:1,2015-03-18T16:00:00Z,27.8966,-93.5973,-2.0,22.04,11111222 
TABS,ioos:station:wmo:42047:1,2015-03-18T16:30:00Z,27.8966,-93.5973,-2.0,22.06,11111222 
TABS,ioos:station:wmo:42047:1,2015-03-18T17:00:00Z,27.8966,-93.5973,-2.0,22.08,11111222 
TABS,ioos:station:wmo:42047:1,2015-03-18T17:30:00Z,27.8966,-93.5973,-2.0,22.1,11111222 
TABS,ioos:station:wmo:42047:1,2015-03-18T18:00:00Z,27.8966,-93.5973,-2.0,22.09,11111222 
TABS,ioos:station:wmo:42047:1,2015-03-18T18:30:00Z,27.8966,-93.5973,-2.0,22.11,11111222 
TABS,ioos:station:wmo:42047:1,2015-03-18T19:00:00Z,27.8966,-93.5973,-2.0,22.12,11111222 
TABS,ioos:station:wmo:42047:1,2015-03-18T19:30:00Z,27.8966,-93.5973,-2.0,22.12,11111222 
TABS,ioos:station:wmo:42047:1,2015-03-18T20:00:00Z,27.8966,-93.5973,-2.0,22.11,11111222 
TABS,ioos:station:wmo:42047:1,2015-03-18T20:30:00Z,27.8966,-93.5973,-2.0,22.1,11111222 
TABS,ioos:station:wmo:42047:1,2015-03-18T21:00:00Z,27.8966,-93.5973,-2.0,22.1,11111222 
TABS,ioos:station:wmo:42047:1,2015-03-18T21:30:00Z,27.8966,-93.5973,-2.0,22.12,11111222 
TABS,ioos:station:wmo:42047:1,2015-03-18T22:00:00Z,27.8966,-93.5973,-2.0,22.16,11111222 
TABS,ioos:station:wmo:42047:1,2015-03-18T22:30:00Z,27.8966,-93.5973,-2.0,22.18,11111222 
TABS,ioos:station:wmo:42047:1,2015-03-18T23:00:00Z,27.8966,-93.5973,-2.0,22.18,11111222 
TABS,ioos:station:wmo:42047:1,2015-03-18T23:30:00Z,27.8966,-93.5973,-2.0,22.17,11111222 
TABS,ioos:station:wmo:42047:1,2015-03-19T00:00:00Z,27.8966,-93.5973,-2.0,22.15,11111222 
TABS,ioos:station:wmo:42047:1,2015-03-19T00:30:00Z,27.8966,-93.5973,-2.0,22.15,11111222 
TABS,ioos:station:wmo:42047:1,2015-03-19T01:00:00Z,27.8966,-93.5973,-2.0,22.12,11111222 
TABS,ioos:station:wmo:42047:1,2015-03-19T01:30:00Z,27.8966,-93.5973,-2.0,22.11,11111222 
TABS,ioos:station:wmo:42047:1,2015-03-19T02:00:00Z,27.8966,-93.5973,-2.0,22.09,11111222 
TABS,ioos:station:wmo:42047:1,2015-03-19T02:30:00Z,27.8966,-93.5973,-2.0,22.07,11111222 
TABS,ioos:station:wmo:42047:1,2015-03-19T03:00:00Z,27.8966,-93.5973,-2.0,22.05,11111222 
TABS,ioos:station:wmo:42047:1,2015-03-19T03:30:00Z,27.8966,-93.5973,-2.0,22.03,11111222 
TABS,ioos:station:wmo:42047:1,2015-03-19T04:00:00Z,27.8966,-93.5973,-2.0,22.03,11111222 
TABS,ioos:station:wmo:42047:1,2015-03-19T04:30:00Z,27.8966,-93.5973,-2.0,22.01,11111222 
TABS,ioos:station:wmo:42047:1,2015-03-19T05:00:00Z,27.8966,-93.5973,-2.0,22.02,11111222 
TABS,ioos:station:wmo:42047:1,2015-03-19T05:30:00Z,27.8966,-93.5973,-2.0,22.03,11111222 
TABS,ioos:station:wmo:42047:1,2015-03-19T06:00:00Z,27.8966,-93.5973,-2.0,22.02,11111222 
TABS,ioos:station:wmo:42047:1,2015-03-19T06:30:00Z,27.8966,-93.5973,-2.0,22.04,11111222 
TABS,ioos:station:wmo:42047:1,2015-03-19T07:00:00Z,27.8966,-93.5973,-2.0,22.03,11111222 
TABS,ioos:station:wmo:42047:1,2015-03-19T07:30:00Z,27.8966,-93.5973,-2.0,22.05,11111222 
TABS,ioos:station:wmo:42047:1,2015-03-19T08:00:00Z,27.8966,-93.5973,-2.0,22.06,11111222 
TABS,ioos:station:wmo:42047:1,2015-03-19T08:30:00Z,27.8966,-93.5973,-2.0,22.06,11111222 
TABS,ioos:station:wmo:42047:1,2015-03-19T09:00:00Z,27.8966,-93.5973,-2.0,22.06,11111222 
TABS,ioos:station:wmo:42047:1,2015-03-19T09:30:00Z,27.8966,-93.5973,-2.0,22.05,11111222 
TABS,ioos:station:wmo:42047:1,2015-03-19T10:00:00Z,27.8966,-93.5973,-2.0,22.05,11111222 
TABS,ioos:station:wmo:42047:1,2015-03-19T10:30:00Z,27.8966,-93.5973,-2.0,22.05,11111222 
TABS,ioos:station:wmo:42047:1,2015-03-19T11:00:00Z,27.8966,-93.5973,-2.0,22.02,11111222 
TABS,ioos:station:wmo:42047:1,2015-03-19T11:30:00Z,27.8966,-93.5973,-2.0,22.01,11111222 
TABS,ioos:station:wmo:42047:1,2015-03-19T12:00:00Z,27.8966,-93.5973,-2.0,22.0,11111222 
TABS,ioos:station:wmo:42047:1,2015-03-19T12:30:00Z,27.8966,-93.5973,-2.0,21.98,11111222 
TABS,ioos:station:wmo:42047:1,2015-03-19T13:00:00Z,27.8966,-93.5973,-2.0,21.98,11111222 
TABS,ioos:station:wmo:42047:1,2015-03-19T13:30:00Z,27.8966,-93.5973,-2.0,21.99,11111222 
TABS,ioos:station:wmo:42047:1,2015-03-19T14:00:00Z,27.8966,-93.5973,-2.0,22.01,11111222 
TABS,ioos:station:wmo:42047:1,2015-03-19T14:30:00Z,27.8966,-93.5973,-2.0,22.03,11111222 
TABS,ioos:station:wmo:42047:1,2015-03-19T15:00:00Z,27.8966,-93.5973,-2.0,22.08,11111222 
TABS,ioos:station:wmo:42047:1,2015-03-19T15:30:00Z,27.8966,-93.5973,-2.0,22.1,11111222 
TABS,ioos:station:wmo:42047:1,2015-03-19T16:00:00Z,27.8966,-93.5973,-2.0,22.12,11111222 
TABS,ioos:station:wmo:42047:1,2015-03-19T16:30:00Z,27.8966,-93.5973,-2.0,22.12,11111222 
TABS,ioos:station:wmo:42047:1,2015-03-19T17:00:00Z,27.8966,-93.5973,-2.0,22.2,11111222 
TABS,ioos:station:wmo:42047:1,2015-03-19T17:30:00Z,27.8966,-93.5973,-2.0,22.32,11111222 
TABS,ioos:station:wmo:42047:1,2015-03-19T18:00:00Z,27.8966,-93.5973,-2.0,22.34,11111222 
TABS,ioos:station:wmo:42047:1,2015-03-19T18:30:00Z,27.8966,-93.5973,-2.0,22.2,11111222 
TABS,ioos:station:wmo:42047:1,2015-03-19T19:00:00Z,27.8966,-93.5973,-2.0,22.29,11111222 
TABS,ioos:station:wmo:42047:1,2015-03-19T19:30:00Z,27.8966,-93.5973,-2.0,22.24,11111222 
TABS,ioos:station:wmo:42047:1,2015-03-19T20:00:00Z,27.8966,-93.5973,-2.0,22.3,11111222 
TABS,ioos:station:wmo:42047:1,2015-03-19T20:30:00Z,27.8966,-93.5973,-2.0,22.3,11111222 
TABS,ioos:station:wmo:42047:1,2015-03-19T21:00:00Z,27.8966,-93.5973,-2.0,22.38,11111222 
TABS,ioos:station:wmo:42047:1,2015-03-19T21:30:00Z,27.8966,-93.5973,-2.0,22.31,11111222 
TABS,ioos:station:wmo:42047:1,2015-03-19T22:00:00Z,27.8966,-93.5973,-2.0,22.33,11111222 
TABS,ioos:station:wmo:42047:1,2015-03-19T22:30:00Z,27.8966,-93.5973,-2.0,22.26,11111222 
TABS,ioos:station:wmo:42047:1,2015-03-19T23:00:00Z,27.8966,-93.5973,-2.0,22.4,11111222 
TABS,ioos:station:wmo:42047:1,2015-03-19T23:30:00Z,27.8966,-93.5973,-2.0,22.43,11111222 
TABS,ioos:station:wmo:42047:1,2015-03-20T00:00:00Z,27.8966,-93.5973,-2.0,22.6,11111222 
TABS,ioos:station:wmo:42047:1,2015-03-20T00:30:00Z,27.8966,-93.5973,-2.0,22.62,11111222 
TABS,ioos:station:wmo:42047:1,2015-03-20T01:00:00Z,27.8966,-93.5973,-2.0,22.72,11111222 
TABS,ioos:station:wmo:42047:1,2015-03-20T01:30:00Z,27.8966,-93.5973,-2.0,22.78,11111222 
TABS,ioos:station:wmo:42047:1,2015-03-20T02:00:00Z,27.8966,-93.5973,-2.0,22.59,11111222 
TABS,ioos:station:wmo:42047:1,2015-03-20T02:30:00Z,27.8966,-93.5973,-2.0,22.54,11111222 
TABS,ioos:station:wmo:42047:1,2015-03-20T03:00:00Z,27.8966,-93.5973,-2.0,22.37,11111222 
TABS,ioos:station:wmo:42047:1,2015-03-20T03:30:00Z,27.8966,-93.5973,-2.0,22.27,11111222 
TABS,ioos:station:wmo:42047:1,2015-03-20T04:00:00Z,27.8966,-93.5973,-2.0,22.16,11111222 
TABS,ioos:station:wmo:42047:1,2015-03-20T04:30:00Z,27.8966,-93.5973,-2.0,22.15,11111222 
TABS,ioos:station:wmo:42047:1,2015-03-20T05:00:00Z,27.8966,-93.5973,-2.0,22.07,11111222 
TABS,ioos:station:wmo:42047:1,2015-03-20T05:30:00Z,27.8966,-93.5973,-2.0,21.98,11111222 
TABS,ioos:station:wmo:42047:1,2015-03-20T06:00:00Z,27.8966,-93.5973,-2.0,22.13,11111222 
TABS,ioos:station:wmo:42047:1,2015-03-20T06:30:00Z,27.8966,-93.5973,-2.0,22.03,11111222 
TABS,ioos:station:wmo:42047:1,2015-03-20T07:00:00Z,27.8966,-93.5973,-2.0,22.14,11111222 
TABS,ioos:station:wmo:42047:1,2015-03-20T07:30:00Z,27.8966,-93.5973,-2.0,22.13,11111222 
TABS,ioos:station:wmo:42047:1,2015-03-20T08:00:00Z,27.8966,-93.5973,-2.0,22.11,11111222 
TABS,ioos:station:wmo:42047:1,2015-03-20T08:30:00Z,27.8966,-93.5973,-2.0,22.13,11111222 
TABS,ioos:station:wmo:42047:1,2015-03-20T09:00:00Z,27.8966,-93.5973,-2.0,22.17,11111222 
TABS,ioos:station:wmo:42047:1,2015-03-20T09:30:00Z,27.8966,-93.5973,-2.0,22.18,11111222 
TABS,ioos:station:wmo:42047:1,2015-03-20T10:00:00Z,27.8966,-93.5973,-2.0,22.2,11111222 
TABS,ioos:station:wmo:42047:1,2015-03-20T10:30:00Z,27.8966,-93.5973,-2.0,22.2,11111222 
TABS,ioos:station:wmo:42047:1,2015-03-20T11:00:00Z,27.8966,-93.5973,-2.0,22.21,11111222 
TABS,ioos:station:wmo:42047:1,2015-03-20T11:30:00Z,27.8966,-93.5973,-2.0,22.37,11111222 
TABS,ioos:station:wmo:42047:1,2015-03-20T12:00:00Z,27.8966,-93.5973,-2.0,22.52,11111222 
TABS,ioos:station:wmo:42047:1,2015-03-20T12:30:00Z,27.8966,-93.5973,-2.0,22.59,11111222 
TABS,ioos:station:wmo:42047:1,2015-03-20T13:00:00Z,27.8966,-93.5973,-2.0,22.52,11111222 
TABS,ioos:station:wmo:42047:1,2015-03-20T13:30:00Z,27.8966,-93.5973,-2.0,22.47,11111222 
TABS,ioos:station:wmo:42047:1,2015-03-20T14:00:00Z,27.8966,-93.5973,-2.0,22.6,11111222 